Theta_e
330 331 332 333 333 333 334 335 335 336 337 338 339 341 342 343 344 345 345 345 345 345 346 348 349 349 349 349 350 350 350 350 350 349 349 348 349 348 347 347 347 347 348 349 350 351 353 355 355 355 356 356 356 358 359 360 359 360 360 360 360 359 358
328 330 332 333 333 334 334 335 336 336 337 338 339 341 341 342 343 344 345 345 346 346 346 347 349 349 349 350 350 350 350 350 350 351 350 349 350 349 349 348 348 347 347 350 351 352 353 354 355 354 355 356 356 358 358 359 359 359 359 359 359 358 358
327 329 331 332 333 334 335 335 336 337 337 338 339 340 341 342 344 344 345 345 345 346 347 347 349 349 350 350 350 350 350 350 350 350 349 348 349 349 349 349 349 348 347 349 351 351 353 353 354 355 355 355 356 357 358 358 359 359 359 359 359 358 357
326 328 330 332 334 335 336 336 336 337 338 338 339 340 341 342 344 345 345 345 345 346 345 347 348 348 349 349 349 350 350 350 350 349 349 349 349 350 349 349 349 349 347 347 349 351 353 353 353 354 357 354 355 356 357 358 358 359 359 359 358 358 358
326 328 329 331 332 334 335 336 336 337 337 338 339 341 342 343 344 345 345 346 346 345 346 347 348 349 350 350 350 350 350 350 350 350 350 350 350 350 349 348 348 348 348 348 349 351 352 352 352 353 354 354 354 355 356 357 358 359 359 359 357 357 357
325 326 328 330 332 333 335 336 337 337 337 338 338 340 341 342 343 344 345 346 346 347 347 347 348 349 349 349 350 350 350 350 351 351 350 350 350 349 348 349 349 348 348 348 349 349 351 352 352 352 352 353 354 354 355 356 357 357 358 358 358 357 356
325 326 328 329 331 333 334 336 337 338 338 339 339 341 341 342 342 343 345 345 346 346 346 346 347 348 349 350 350 350 349 349 350 350 350 350 350 349 349 349 350 349 349 350 349 349 349 350 352 352 352 352 353 353 353 354 355 357 358 357 357 357 357
326 326 328 329 331 333 334 336 337 338 339 339 339 339 340 341 342 343 343 345 346 346 346 346 347 348 349 350 350 349 349 349 350 350 350 349 349 349 349 349 349 350 350 348 349 350 349 350 351 352 352 352 352 353 353 354 355 356 357 356 356 356 357
325 327 328 329 331 332 334 336 337 338 338 338 338 339 340 341 341 342 343 344 345 345 346 347 347 348 349 349 349 349 350 350 349 350 349 349 349 349 349 349 349 350 349 348 349 351 350 350 350 351 352 352 352 353 353 353 354 355 356 356 356 355 356
324 325 327 329 331 333 334 336 337 338 337 338 338 338 339 340 341 342 343 343 344 345 346 346 347 348 349 349 349 349 349 349 349 349 349 348 348 348 349 349 349 350 350 349 349 349 351 352 351 352 352 351 352 352 352 353 353 354 355 355 356 356 356
323 325 326 328 329 331 333 335 336 337 337 338 338 338 340 340 340 341 342 343 343 344 346 347 348 347 348 348 348 348 348 348 348 348 348 348 348 348 349 349 350 350 350 350 349 349 350 352 353 352 352 351 351 352 352 352 353 353 354 355 356 356 356
321 324 325 327 329 330 332 334 336 337 338 338 338 338 339 340 341 341 342 343 344 344 345 346 347 347 347 347 347 347 347 348 348 348 348 348 348 348 349 349 349 350 350 351 350 350 350 350 352 352 352 352 352 353 353 353 353 353 353 354 355 355 355
320 322 325 326 328 330 333 334 336 337 338 338 338 339 339 340 340 341 342 343 344 344 345 346 346 347 346 346 346 347 347 347 347 348 348 348 348 349 349 349 349 349 349 351 351 350 350 350 350 352 353 353 353 353 353 353 353 353 354 354 355 355 355
327 322 324 326 328 330 331 334 336 336 337 338 338 339 340 340 341 341 342 342 343 344 345 345 346 346 346 346 346 346 346 347 348 348 348 349 349 349 349 349 349 350 350 351 350 350 350 350 350 351 352 353 353 354 354 354 354 354 354 354 354 354 354
318 321 322 324 327 330 332 333 335 336 337 338 339 339 340 340 341 342 342 343 344 344 344 346 345 345 345 345 345 346 347 348 348 349 349 349 349 349 349 349 350 350 351 351 351 351 351 352 352 351 351 352 352 353 354 354 353 354 354 353 354 354 354
316 321 322 324 327 330 332 334 335 336 337 338 338 339 339 340 341 341 342 342 343 344 345 346 345 345 345 344 345 346 347 348 349 348 349 348 348 349 349 349 350 350 350 351 351 351 352 352 352 352 351 351 352 352 353 353 354 346 335 338 353 354 354
317 322 323 326 328 330 332 334 335 336 337 338 338 339 340 341 341 342 342 343 343 344 345 346 345 345 345 345 346 347 347 348 348 349 348 349 349 349 349 349 350 350 350 350 351 351 352 352 350 350 351 351 352 352 353 353 352 336 330 330 334 350 354
320 323 325 327 329 330 332 334 335 336 337 337 338 339 340 341 342 342 342 344 344 345 346 346 345 345 345 346 347 347 347 348 348 348 349 349 349 349 350 350 350 350 350 350 350 351 352 351 350 350 350 350 351 351 353 353 339 332 329 329 328 333 353
322 324 326 328 329 331 332 334 335 336 337 338 339 339 341 342 342 342 344 344 345 347 346 346 346 346 346 347 347 348 348 348 348 348 348 349 350 350 350 350 350 350 350 349 351 351 351 351 351 350 351 350 349 349 350 352 336 330 328 328 327 327 337
322 325 327 329 331 332 334 336 336 338 338 339 340 341 342 344 343 344 345 346 347 347 347 347 347 347 347 347 348 348 349 349 349 348 349 349 350 350 350 350 349 350 351 351 351 351 350 350 350 351 351 350 350 350 350 350 335 328 325 325 325 326 330
321 325 325 327 330 332 334 336 337 338 338 339 340 341 342 343 344 345 346 347 346 347 347 348 348 347 348 348 348 349 349 349 349 349 349 350 350 350 350 350 350 350 351 351 350 350 350 350 350 350 350 350 351 350 349 350 333 326 323 322 322 324 327
326 324 325 328 330 332 333 335 336 337 338 341 342 341 342 342 345 345 345 347 347 347 348 348 348 348 348 348 349 349 350 350 350 350 350 350 350 350 349 350 350 350 351 351 351 351 351 351 351 350 350 351 351 350 349 350 331 325 323 321 320 322 336
339 331 327 329 330 331 334 336 337 339 342 341 341 341 341 343 345 345 345 346 346 348 348 348 348 348 349 349 349 350 350 350 350 350 350 351 350 350 350 350 350 351 352 351 351 350 350 350 350 351 351 350 350 349 350 350 337 324 321 320 319 322 340
342 342 338 333 333 333 335 336 339 342 340 340 340 341 342 343 345 345 345 345 346 347 347 348 348 349 350 350 351 351 351 351 351 351 351 351 350 350 351 351 352 351 352 351 350 350 350 351 351 351 352 350 350 350 350 350 341 324 320 318 318 325 342
340 341 342 342 338 337 338 338 340 341 341 340 339 340 342 344 344 344 345 347 346 347 347 347 348 350 350 351 352 353 353 353 352 352 351 351 351 351 351 351 352 353 353 352 352 352 352 352 351 351 352 351 351 344 348 350 342 325 320 317 316 326 344
338 340 342 344 345 346 346 348 346 343 342 341 342 342 343 343 344 345 345 346 346 346 346 348 349 351 352 353 353 354 354 354 354 353 353 352 352 353 353 353 353 353 353 353 353 353 353 352 352 351 351 352 351 351 350 350 351 345 320 317 315 318 343
338 340 341 342 343 348 345 346 347 346 347 348 350 347 343 343 343 345 346 346 345 346 347 349 351 352 353 354 354 354 355 355 355 354 355 355 354 354 354 354 354 353 353 353 353 353 352 352 352 351 351 352 352 351 351 351 351 348 321 315 314 314 323
335 337 340 342 345 344 342 343 344 346 348 350 353 352 347 345 346 348 348 346 345 348 354 354 352 351 352 353 354 355 355 356 356 356 356 356 356 355 354 355 355 355 354 354 353 352 352 352 351 351 351 352 352 352 352 350 342 352 326 316 313 312 313
331 333 335 337 338 340 340 339 340 341 343 346 350 352 352 351 350 350 351 349 351 354 357 359 358 355 352 352 352 354 356 357 357 356 357 356 357 356 354 355 355 355 355 354 353 352 352 352 352 351 351 351 352 352 353 353 351 332 344 319 313 312 311
330 332 335 337 338 339 340 337 338 339 340 342 344 347 350 350 348 349 349 347 349 352 356 357 356 357 355 352 351 352 354 356 358 358 358 358 357 357 356 355 356 355 355 354 353 352 351 351 352 351 350 350 350 351 352 353 354 337 328 333 314 313 311
327 330 332 334 336 339 337 336 337 338 339 340 342 343 345 349 348 348 346 345 350 351 353 353 355 355 353 352 352 351 352 354 356 357 358 359 358 356 356 356 356 354 355 354 353 352 351 351 351 350 350 349 349 350 351 352 352 353 337 324 320 313 312
325 328 331 334 336 337 336 337 337 338 338 339 341 343 345 346 348 347 345 347 350 349 351 353 355 354 354 352 349 350 351 351 352 354 357 358 359 358 357 357 356 355 354 354 353 352 351 351 350 350 350 349 350 350 351 352 352 353 352 336 330 322 314
324 326 328 330 335 337 334 336 336 336 337 337 338 340 342 342 344 345 347 348 347 349 351 356 356 357 352 350 350 349 350 350 350 351 353 355 357 358 358 358 356 355 353 354 353 352 351 352 350 349 349 349 350 351 351 352 353 354 353 348 345 342 336
323 324 327 331 333 338 334 334 334 335 335 335 336 338 340 340 341 342 343 344 346 348 355 359 358 352 349 349 350 349 349 350 355 354 352 354 355 356 356 356 356 355 354 353 353 352 352 352 351 350 350 350 351 352 352 353 353 353 351 347 346 346 343
323 323 325 328 331 336 335 334 334 334 334 334 335 337 338 338 339 341 342 344 345 347 353 355 355 349 346 347 350 352 353 352 358 353 343 331 322 315 314 318 330 352 354 336 339 355 355 353 354 353 354 354 353 352 352 353 352 353 336 348 331 340 340
322 323 324 327 331 333 335 337 335 333 333 333 335 337 337 338 339 340 342 345 345 347 349 349 347 346 346 347 347 353 354 353 350 341 336 334 328 323 318 311 301 304 331 334 322 311 310 331 354 357 357 353 329 330 352 355 354 306 304 305 306 309 313
321 322 323 326 328 330 333 335 337 335 334 333 335 336 337 337 337 339 341 343 345 345 345 345 345 344 344 346 348 351 353 349 344 341 338 336 334 335 332 328 319 300 298 305 306 300 297 300 312 326 331 344 330 311 301 302 299 298 298 298 298 299 299
322 323 325 326 327 329 330 333 333 333 333 332 334 334 335 336 336 336 338 341 343 345 345 344 344 343 342 344 349 352 350 347 343 339 337 336 337 336 334 334 331 323 305 297 300 300 297 297 297 304 313 315 317 315 312 301 297 297 297 298 298 298 297
Wind_Speed
19 18 17 16 15 16 18 19 19 18 18 17 17 19 19 17 17 16 16 17 18 17 16 16 16 14 16 15 14 13 12 11 10 11 10 10 10 9 9 8 9 8 7 8 8 9 8 7 8 8 6 7 6 6 6 6 6 5 5 5 5 5 6
15 16 16 15 16 17 18 18 17 16 16 16 16 18 17 19 17 17 17 18 19 19 17 17 16 15 15 15 13 14 14 13 12 10 10 9 8 8 9 9 9 8 8 8 7 6 6 7 8 8 8 7 7 6 6 6 6 6 6 6 6 6 6
17 17 17 16 16 16 18 16 16 17 18 17 17 18 19 19 19 20 18 17 18 17 16 17 17 16 15 14 13 14 14 13 12 12 12 12 12 12 9 9 8 8 8 7 6 7 7 7 7 7 7 7 7 7 7 6 6 6 6 6 5 6 7
17 18 19 19 19 19 19 19 20 19 19 20 21 21 20 19 18 17 17 18 18 17 18 17 16 16 15 15 15 14 14 14 14 13 13 12 11 10 8 8 7 6 7 9 8 7 6 7 7 7 8 8 8 7 6 7 6 6 6 6 5 5 5
17 19 18 17 17 16 15 16 16 17 19 20 19 19 19 18 17 16 16 17 18 19 19 18 16 15 13 14 12 12 13 14 13 12 12 10 9 9 9 10 9 9 10 7 7 7 7 7 7 7 8 8 8 7 7 7 7 6 6 6 5 5 5
15 16 16 17 17 16 16 18 19 20 20 20 20 19 18 18 16 18 18 17 17 17 16 15 16 15 15 14 13 12 11 12 12 12 11 11 10 10 11 11 10 10 9 9 8 8 8 8 8 8 8 7 7 7 6 7 6 6 6 5 5 5 5
14 16 17 18 18 17 18 18 19 19 18 17 15 14 14 16 19 18 16 17 17 18 18 17 17 15 14 12 13 13 13 13 13 13 11 11 11 11 11 10 10 9 9 6 8 8 9 9 9 9 9 9 8 8 8 8 8 6 5 6 5 5 6
14 15 17 19 19 19 18 19 19 18 16 13 13 15 18 18 17 18 18 18 17 17 16 18 16 15 14 13 13 14 14 14 13 13 11 12 12 12 11 10 10 10 8 10 9 9 10 10 10 9 10 8 9 9 9 9 8 6 6 6 6 6 5
15 17 18 18 19 18 19 19 18 18 19 20 21 20 20 18 18 18 18 17 16 17 18 17 17 16 14 14 14 16 14 14 13 12 14 14 12 11 11 10 10 9 10 10 9 9 10 11 10 10 9 9 9 9 9 9 8 7 7 7 7 7 6
14 13 15 16 15 16 17 16 14 13 15 16 16 15 17 17 17 17 17 18 17 19 18 17 16 15 15 14 15 15 14 14 13 14 13 13 13 13 12 10 10 9 10 10 9 9 10 10 10 9 9 10 10 10 10 9 9 8 7 8 8 8 8
12 14 15 16 16 17 14 12 13 15 17 17 17 17 17 17 17 17 17 17 17 18 18 17 15 15 15 16 15 15 14 15 14 14 15 14 11 12 11 11 9 9 10 9 10 10 9 9 9 9 10 10 11 11 11 11 10 9 8 7 7 8 7
12 13 14 16 16 15 15 16 16 15 16 16 17 17 17 17 17 17 17 18 17 17 16 16 14 15 15 15 14 14 15 15 14 14 16 15 13 13 12 11 11 11 9 10 11 10 10 10 9 10 11 11 12 11 11 10 10 10 10 8 7 7 7
13 14 15 17 16 15 15 13 17 18 18 18 18 18 17 17 17 17 16 17 17 16 16 15 14 15 15 15 15 14 15 15 15 14 14 14 14 12 12 12 11 11 11 11 11 10 9 9 10 10 11 12 11 11 11 11 10 9 9 9 9 9 8
14 14 14 13 12 14 16 18 18 18 19 18 17 17 16 16 17 17 17 17 16 15 15 13 14 15 15 14 14 14 16 15 14 13 13 13 12 13 13 12 12 12 12 10 11 10 11 11 11 11 10 11 11 11 10 9 9 9 10 10 10 8 8
15 17 16 14 14 16 17 17 16 18 18 18 18 17 17 16 15 13 13 13 14 15 16 15 15 15 15 14 15 15 14 13 12 12 12 13 12 12 12 12 12 11 11 11 11 10 11 11 11 11 11 11 11 11 9 9 10 10 10 10 10 9 9
15 16 15 16 16 17 17 19 19 18 19 17 18 18 17 15 15 16 17 16 16 16 15 14 15 15 15 15 15 14 13 13 12 12 13 13 13 13 12 12 11 11 11 12 12 11 10 10 11 10 11 11 11 10 9 9 9 11 16 13 10 9 8
15 16 16 16 16 18 17 17 17 16 17 17 18 19 18 17 17 16 16 15 16 16 15 15 14 15 15 16 15 14 13 12 12 12 13 13 12 11 12 12 11 11 12 12 12 12 11 11 11 11 11 12 11 10 10 9 10 15 15 16 16 12 10
13 14 16 16 17 16 15 15 15 17 18 19 19 18 17 15 15 15 16 16 16 16 14 15 14 15 15 15 13 13 13 12 12 12 12 12 13 12 12 11 11 12 12 12 12 12 11 12 13 12 12 11 10 10 9 10 13 15 15 16 17 15 11
11 13 15 16 16 16 16 17 18 20 20 18 18 18 18 17 16 17 17 16 15 13 14 15 15 14 14 13 13 13 13 12 13 13 13 13 13 12 11 12 12 13 12 13 12 11 12 13 13 12 12 12 12 12 12 10 13 15 16 16 17 18 15
6 7 9 13 15 17 16 15 15 17 19 20 20 20 17 17 18 14 12 12 12 14 13 13 13 13 13 13 13 13 13 13 13 14 14 13 13 12 13 13 14 13 12 12 11 11 12 13 13 13 12 12 12 12 11 11 14 16 17 17 17 18 14
6 6 7 6 8 10 12 14 14 12 12 11 11 10 10 10 8 10 11 13 14 13 13 13 13 13 14 14 13 13 13 13 14 14 13 13 13 13 13 13 13 13 12 10 11 12 13 13 13 13 12 13 12 11 11 10 15 15 17 17 17 17 13
2 7 8 9 10 10 12 14 15 16 15 11 12 12 13 13 12 13 13 13 14 13 13 13 13 14 14 13 13 14 14 14 14 14 13 13 13 13 13 13 13 13 12 11 11 10 11 10 11 12 13 13 12 11 13 11 16 16 17 17 16 16 10
7 1 7 5 8 6 5 6 9 11 11 12 13 13 13 12 13 13 12 13 12 13 13 14 14 14 14 14 14 14 14 14 15 14 14 13 13 13 13 13 13 13 11 12 11 10 10 12 10 10 11 12 12 14 13 12 14 16 17 17 17 13 8
11 9 5 10 9 10 10 9 10 10 12 12 12 12 11 12 12 12 12 12 12 13 13 13 14 14 13 14 14 14 14 14 15 15 14 13 14 14 14 14 13 13 12 12 12 11 12 10 11 11 11 13 13 12 11 11 12 15 16 17 18 15 10
13 10 10 6 9 13 12 12 14 13 12 13 13 12 13 13 13 12 12 12 12 13 13 14 14 13 13 14 14 14 14 14 14 14 14 14 15 15 15 14 14 13 12 10 10 11 10 10 9 10 10 10 11 14 14 11 12 16 16 17 18 15 10
14 13 12 11 10 6 10 11 12 12 13 14 14 13 14 14 13 13 12 12 12 13 13 14 14 14 14 13 13 12 13 12 14 14 13 15 15 13 14 13 11 10 10 10 10 10 9 10 9 11 10 10 11 10 11 12 13 12 17 17 18 19 12
13 13 13 13 11 8 9 8 9 10 9 8 10 12 13 13 13 12 11 11 11 13 14 13 12 12 12 11 11 12 13 12 13 15 14 14 14 14 13 11 12 12 11 11 9 10 10 11 10 10 11 10 10 10 10 11 12 13 16 17 18 19 17
16 16 15 13 13 10 10 10 11 11 10 6 8 10 11 12 12 10 10 10 11 10 8 8 9 10 10 11 12 13 13 13 13 13 13 13 12 11 11 11 12 11 12 9 10 12 12 11 10 10 10 9 10 10 11 11 15 12 14 18 18 19 21
16 14 13 13 13 11 8 9 10 10 9 7 7 8 10 13 12 10 10 9 8 6 7 7 7 8 9 9 10 10 12 12 14 13 11 12 13 13 13 12 11 11 11 11 11 11 12 12 10 10 10 9 9 8 9 9 10 16 13 15 19 19 20
16 15 14 12 10 9 9 9 9 10 9 8 8 8 9 13 12 11 11 9 5 5 6 6 6 7 8 9 10 11 12 13 14 14 12 13 13 13 13 11 11 11 10 11 11 10 11 10 9 9 10 9 9 9 8 8 9 11 16 13 18 18 20
14 14 13 11 11 10 9 9 10 9 10 8 9 9 8 9 13 12 11 4 4 6 6 7 7 7 7 7 8 9 10 10 11 13 13 12 12 12 12 12 11 10 10 10 10 10 10 10 9 10 10 10 9 9 8 8 8 7 11 16 16 18 19
15 14 14 13 12 10 8 8 10 10 10 10 9 8 7 7 9 12 7 5 4 5 6 6 7 6 7 6 6 8 8 9 9 10 10 10 9 11 11 12 11 11 10 10 10 10 10 9 8 8 8 9 8 8 8 7 7 7 7 8 11 12 16
12 12 12 13 11 9 9 9 10 10 10 10 8 7 7 8 7 6 6 6 5 5 5 5 5 4 4 5 4 5 6 8 8 7 7 7 7 7 8 9 9 9 9 9 9 9 9 8 8 7 7 8 8 8 8 7 6 6 5 4 6 7 8
12 13 13 11 11 9 8 9 9 8 8 7 6 6 6 6 6 4 4 4 4 5 6 5 4 4 3 3 3 5 6 6 8 8 6 5 6 6 6 6 7 8 9 10 10 9 9 8 8 9 8 8 7 7 6 6 6 5 6 6 6 5 4
10 10 10 13 11 10 7 7 7 6 6 5 4 5 7 6 6 5 6 5 4 3 6 5 4 4 4 2 1 4 5 5 5 5 5 6 7 8 6 3 0 3 5 1 2 7 9 9 8 9 8 8 8 7 6 5 6 8 4 5 6 7 6
11 10 10 9 8 9 8 7 5 6 5 4 4 6 6 6 6 6 5 4 3 4 7 5 5 5 4 3 2 3 4 5 5 5 6 6 6 6 7 11 10 7 2 2 4 5 4 3 8 8 6 6 2 1 6 7 4 8 11 11 10 8 7
10 10 10 10 11 11 9 7 5 5 5 4 4 5 6 6 6 6 6 5 4 5 6 6 6 5 4 3 2 4 6 6 6 6 7 7 8 7 8 6 9 15 13 8 6 7 9 8 4 5 9 10 6 3 9 8 11 11 12 12 12 12 13
6 7 8 7 7 8 9 9 7 5 4 3 4 5 5 7 7 6 6 5 4 4 5 5 6 5 3 3 2 5 6 6 7 8 8 7 6 7 7 7 7 7 14 14 13 14 14 12 11 9 8 12 14 10 5 8 11 13 13 14 15 14 14
Wind_Direction
196 198 200 197 195 193 195 196 193 191 192 192 191 190 189 190 190 187 190 189 192 192 190 188 189 188 191 193 193 193 194 191 190 193 193 198 198 194 191 190 192 194 188 194 200 200 203 189 197 203 200 204 208 202 196 192 194 192 189 187 187 190 198
197 201 200 197 197 198 199 196 191 190 191 193 192 191 191 191 189 189 191 190 192 191 188 189 189 191 192 194 193 193 192 192 191 193 194 195 196 197 192 191 193 191 191 199 192 201 193 198 195 196 199 200 208 203 202 201 200 194 192 187 191 204 205
195 198 198 195 198 199 197 193 190 191 192 191 190 191 194 193 190 190 187 188 190 191 188 190 191 192 192 193 193 195 194 192 192 192 194 196 197 196 193 192 192 187 192 188 187 195 198 198 197 198 198 202 203 203 203 203 204 199 196 188 192 201 205
191 195 197 197 199 198 193 191 192 192 193 192 191 193 193 192 191 189 188 188 188 188 189 192 192 192 192 192 194 195 195 194 193 195 198 197 196 193 190 194 191 183 179 196 195 192 196 196 196 199 201 206 209 206 201 206 203 200 198 187 197 198 201
194 194 194 196 200 197 192 194 195 194 196 195 194 191 190 188 186 188 190 190 189 190 191 190 191 192 193 193 195 195 195 193 194 197 198 197 191 185 193 197 194 195 202 193 185 191 195 195 199 197 202 208 210 206 209 206 206 203 198 190 197 194 201
191 190 193 197 199 196 193 195 194 195 196 192 190 189 188 185 185 189 190 188 190 191 189 188 190 190 193 194 193 193 192 194 195 195 195 192 186 189 197 199 196 200 195 197 188 196 193 199 203 201 202 203 208 211 209 209 210 201 199 190 202 194 197
190 191 193 197 197 194 194 196 196 196 194 193 188 183 180 183 188 189 187 190 189 187 187 189 191 190 193 188 194 191 191 193 193 196 194 191 190 194 198 198 198 199 200 182 193 187 194 201 206 207 208 209 210 212 214 215 215 202 196 196 200 200 200
192 192 197 197 196 195 195 196 195 193 187 179 177 181 186 188 187 186 188 189 188 188 189 188 188 188 187 188 191 193 193 194 194 194 192 194 193 199 197 196 198 197 184 194 198 188 196 201 205 208 208 207 212 214 218 218 216 201 190 201 204 207 197
195 194 197 199 198 197 197 194 191 184 178 178 183 187 187 185 186 188 188 186 188 189 190 188 187 186 186 188 189 194 194 192 192 191 194 196 197 199 196 196 198 189 192 199 197 196 200 203 205 206 206 209 211 214 219 219 216 204 200 208 208 209 207
198 198 204 203 200 199 198 193 183 174 178 181 184 183 184 187 187 186 186 187 187 191 190 188 186 185 185 188 193 193 190 192 192 192 194 196 199 200 200 197 194 188 197 199 196 198 205 204 203 204 206 210 213 213 219 217 214 210 206 211 209 212 213
209 204 201 198 196 197 192 178 170 180 181 181 183 184 184 183 185 186 187 187 188 191 189 188 184 183 186 189 190 190 191 193 192 194 197 199 199 201 199 198 191 190 196 194 201 203 200 203 200 203 206 212 213 214 216 218 212 213 211 210 211 214 213
215 207 206 200 197 188 181 179 181 180 180 182 183 182 182 184 185 185 186 188 188 189 186 187 184 185 185 188 189 191 192 194 194 196 198 199 200 201 200 198 198 196 195 195 201 201 201 200 199 203 208 214 216 215 217 216 213 213 215 210 206 211 214
210 209 208 201 191 186 181 177 181 181 180 181 182 181 182 183 183 184 185 186 187 186 185 183 182 183 186 188 191 190 195 195 197 197 197 198 200 200 200 201 198 197 199 197 201 200 202 201 202 207 210 215 216 217 217 216 215 216 214 214 212 213 214
218 213 209 200 187 179 180 183 182 181 181 180 181 181 181 183 183 183 182 185 184 181 181 182 183 184 187 188 191 193 195 196 196 196 197 197 198 200 201 201 202 203 203 196 200 204 206 205 207 210 213 217 218 221 218 216 215 217 215 213 211 210 214
210 209 202 190 186 182 184 182 182 182 180 180 177 177 178 179 180 179 181 180 180 181 183 179 181 184 186 187 192 196 195 194 194 195 196 197 198 201 201 201 202 202 201 200 204 207 209 210 211 214 217 220 221 223 218 217 218 217 215 212 212 211 216
212 204 195 187 184 185 184 185 182 180 179 175 175 177 176 177 178 179 179 180 180 181 181 174 182 183 186 190 195 195 193 191 192 193 195 196 199 201 200 200 201 201 202 204 206 207 207 209 213 215 218 220 221 221 218 220 222 219 210 207 211 211 216
202 193 188 189 185 185 187 184 179 174 173 175 177 178 177 178 180 179 178 177 178 181 179 177 179 184 186 192 194 192 190 189 193 192 195 198 199 199 199 202 200 201 204 207 206 206 206 206 212 216 217 219 219 217 218 221 224 219 206 208 209 209 215
192 186 184 187 187 185 182 174 170 172 176 179 179 178 178 175 174 174 179 178 180 179 173 177 180 184 188 192 189 188 188 191 190 193 197 196 200 199 200 199 201 204 206 207 207 209 206 209 214 216 217 219 219 220 218 223 223 216 208 206 207 208 214
194 188 186 186 183 181 176 175 175 177 178 177 177 178 180 175 172 181 180 178 176 167 174 180 180 182 186 188 189 188 188 187 189 194 196 198 199 199 197 200 203 206 207 209 210 209 209 214 214 216 216 218 220 223 223 226 219 213 210 207 205 207 210
212 199 199 187 181 178 178 176 178 178 178 178 180 181 174 173 180 178 168 162 159 171 173 174 179 180 185 187 189 188 187 189 191 195 199 197 198 198 200 201 206 207 208 211 210 212 216 216 218 219 217 218 221 224 225 225 223 210 210 210 207 206 203
183 172 173 184 184 178 174 175 171 167 167 172 166 154 155 161 145 140 155 162 168 171 170 174 177 179 185 190 190 187 188 190 193 198 198 198 198 199 203 203 206 207 208 207 209 211 215 216 218 220 220 220 220 223 225 225 219 211 209 211 208 206 199
265 161 166 173 175 173 166 166 167 169 169 155 152 159 163 163 156 158 166 168 168 168 170 173 178 186 187 190 189 188 190 190 195 199 198 198 199 200 204 205 206 207 207 209 213 215 219 220 220 222 222 222 221 224 230 228 214 210 210 208 206 198 195
348 112 135 132 143 141 133 131 138 141 140 150 157 156 160 157 158 160 160 166 170 168 171 176 184 188 188 190 190 191 191 192 195 198 199 198 198 201 204 205 207 210 205 209 213 212 212 218 215 221 223 222 220 224 231 234 218 209 210 206 198 188 195
17 27 66 118 115 121 127 125 122 134 142 147 154 156 151 153 154 156 162 167 165 169 174 180 190 189 188 191 192 193 192 194 195 198 199 196 199 202 205 207 208 209 204 206 209 212 213 210 219 221 221 222 223 221 227 233 225 209 209 205 195 191 194
21 30 39 44 124 133 137 143 145 146 145 147 150 154 149 151 150 155 163 167 169 173 176 186 191 189 191 195 193 193 193 194 196 199 197 197 202 203 205 206 206 207 201 204 209 216 214 214 218 222 223 221 224 223 222 231 231 213 209 203 198 195 206
19 26 35 45 40 69 117 127 126 136 149 157 160 155 153 153 157 163 165 169 166 174 183 189 192 192 196 195 192 192 193 194 197 199 196 201 205 204 208 207 207 203 197 204 206 212 211 211 214 219 223 221 221 221 218 225 233 219 206 205 200 195 200
27 30 38 42 46 45 69 78 103 118 124 136 145 154 154 155 158 164 163 162 167 181 187 190 190 191 197 195 193 192 193 195 197 198 201 203 203 204 207 202 205 204 201 203 202 210 213 212 213 218 225 221 221 222 220 220 227 226 201 206 200 197 197
19 26 31 40 43 46 68 75 83 86 82 82 126 144 150 149 151 150 152 160 176 181 170 171 183 187 194 195 195 195 194 196 199 200 203 204 202 201 206 206 205 203 203 202 203 207 212 213 214 219 223 223 221 222 224 217 215 227 206 201 201 198 198
16 17 18 20 27 25 42 69 65 66 73 63 81 118 132 129 128 131 133 134 145 146 147 153 159 170 182 191 196 196 196 197 198 200 202 203 200 200 205 203 201 202 199 201 203 206 211 212 211 215 222 224 222 223 221 219 214 213 215 201 200 200 200
14 13 15 16 20 19 21 56 60 62 52 50 65 82 106 119 118 120 116 125 158 143 140 144 152 153 172 189 196 198 200 199 201 202 203 203 199 200 205 200 200 199 198 199 200 203 209 211 209 210 217 219 224 221 221 216 216 208 210 203 200 203 202
15 13 13 11 13 13 22 37 52 56 53 48 62 71 81 100 112 107 106 144 155 150 142 149 147 147 160 175 198 206 207 203 203 203 203 204 196 197 202 202 194 197 199 195 199 201 206 210 203 207 212 218 221 223 220 216 211 214 204 206 200 203 206
6 7 9 13 14 14 20 37 49 53 57 47 46 66 74 81 95 103 124 148 133 134 132 138 143 144 153 168 178 195 200 206 212 210 207 202 196 199 199 198 193 198 196 193 198 200 204 208 202 207 209 214 221 221 221 210 210 211 201 196 207 209 213
2 5 7 6 2 12 23 39 49 46 44 48 24 43 58 75 78 104 132 124 135 130 130 121 117 121 132 156 177 186 186 195 201 204 203 198 193 195 197 196 195 196 193 192 195 197 201 202 199 200 200 211 215 219 215 210 200 199 193 177 185 196 201
359 0 359 3 3 14 27 37 45 49 49 46 21 35 48 50 49 44 61 70 80 107 114 108 116 120 132 155 183 171 180 190 196 184 177 173 178 188 188 188 187 190 192 192 194 191 197 194 199 199 198 205 209 213 212 208 200 191 193 190 187 179 169
347 360 1 5 358 8 22 29 43 47 58 44 26 51 56 47 36 26 39 35 40 86 98 97 91 81 52 32 138 158 166 163 155 134 114 83 67 54 40 15 332 210 165 35 262 200 192 197 200 203 202 203 199 196 214 211 209 218 179 169 170 168 160
348 355 1 358 355 6 12 22 34 41 42 26 41 67 63 53 35 27 17 21 42 81 89 92 82 65 41 35 53 128 132 125 116 110 116 117 108 104 74 63 67 35 22 121 13 16 356 196 198 200 186 163 70 313 211 221 219 114 123 129 131 132 137
352 350 355 1 4 0 357 2 8 38 34 8 25 57 67 63 46 34 22 16 23 62 96 104 90 79 57 50 53 142 134 127 125 127 127 132 134 127 125 111 54 47 46 48 47 42 46 51 41 168 168 156 144 81 54 83 98 104 104 102 98 100 100
359 347 346 358 11 5 355 350 349 1 1 339 37 48 53 57 40 31 20 19 23 46 70 77 94 90 86 75 97 130 129 130 130 134 135 137 140 136 137 119 108 62 42 46 56 56 53 46 49 66 106 127 131 128 73 73 93 105 105 106 108 106 104